Regional Weather Roundup
Issued by NWS

Home | Current Version | Previous Version | Graphics & Text | Print | Product List | Glossary On
Versions: 1 2 3 4 5 6 7 8 9 10 11 12 13 14 15 16 17 18 19 20 21 22 23 24 25 26 27 28 29 30 31 32 33 34 35 36 37 38 39 40 41 42 43 44 45 46 47 48 49 50
000
ASUS43 KDTX 021701
RWRMI
MICHIGAN HOURLY REGIONAL WEATHER ROUNDUP
NATIONAL WEATHER SERVICE DETROIT/PONTIAC MI
100 PM EDT MON MAY 02 2016

NOTE: "FAIR" INDICATES FEW OR NO CLOUDS BELOW 12,000 FEET WITH NO
SIGNIFICANT WEATHER AND/OR OBSTRUCTION TO VISIBILITY.

MIZ047>049-052>055-059>063-066>070-074>076-081>083-021800-
SOUTHEAST LOWER MICHIGAN

CITY           SKY/WX    TMP DP  RH WIND       PRES   REMARKS
ADRIAN         CLOUDY    51  46  83 NE7       30.03R
ALMA           CLOUDY    50  43  75 E8        30.08R
ANN ARBOR      CLOUDY    50  45  83 NE7       30.02R
BAD AXE        CLOUDY    52  40  61 NE8       30.05F
CARO           CLOUDY    53  42  66 NE6       30.03S
DETROIT CITY   CLOUDY    52  45  77 NE10      30.02F
DETROIT        CLOUDY    52  45  77 N9        30.03R
FLINT          CLOUDY    54  43  66 VRB6      30.04F
GROSSE ILE     CLOUDY    52  46  82 NE7       30.01R
HILLSDALE      CLOUDY    47  44  87 NE5       30.01R
HOWELL         CLOUDY    48  46  92 N6        30.03S

CITY           SKY/WX    TMP DP  RH WIND       PRES   REMARKS
JACKSON        CLOUDY    49  45  86 NE7       30.03R
LAMBERTVILLE   CLOUDY    51  47  87 E3        30.02R
LANSING        CLOUDY    49  43  80 NE9       30.06R
LAPEER         CLOUDY    50  42  73 NE8       30.04F
MASON          CLOUDY    47  45  91 NE9       30.04S
MONROE         CLOUDY    51  47  87 NE5       30.02R
MT. CLEMENS    CLOUDY    51  47  87 N10       30.01F
PONTIAC        CLOUDY    49  43  80 NE10      30.01F
PORT HOPE        N/A     46  39  76 NW5       30.06R
TRI CITIES     PTSUNNY   54  40  59 NE10      30.07R
MIDLAND        FAIR      55  38  54 NE14G20   30.06R
TROY           CLOUDY    52  45  77 N8        30.04R
SAGINAW HB     CLOUDY    52  43  71 NE7       30.05R
$$
MIZ043>046-050>051-056>058-064>065-071>073-077>080-021800-
SOUTHWEST LOWER MICHIGAN

CITY           SKY/WX    TMP DP  RH WIND       PRES   REMARKS
BATTLE CREEK   CLOUDY    51  43  74 NE10      30.03R
BENTON HARBOR  PTSUNNY   53  42  66 N8        30.03S
BIG RAPIDS     MOSUNNY   58  31  34 E9        30.04S
COLDWATER      CLOUDY    50  46  86 NE7       30.02S
FREMONT        PTSUNNY   59  28  30 E5        30.04S
HOLLAND        PTSUNNY   56  41  57 E7        30.05S
GRAND RAPIDS   PTSUNNY   56  43  61 E12       30.05R
IONIA          CLOUDY    50  42  73 NE5       30.06R
KALAMAZOO      CLOUDY    52  42  69 NE6       30.03S
LUDINGTON      MOSUNNY   56  37  48 NW14G20   30.06R
MARSHALL       CLOUDY    49  44  84 NE6       30.03S
MOUNT PLEASANT CLOUDY    55  39  56 E7        30.05S
MUSKEGON       PTSUNNY   61  36  39 NE13G18   30.04F
SOUTH HAVEN    PTSUNNY   55  43  64 N9        30.02F
$$
MIZ016>042-021800-
NORTHERN LOWER MICHIGAN

CITY           SKY/WX    TMP DP  RH WIND       PRES   REMARKS
ALPENA         PTSUNNY   60  31  33 N9        30.05F
BEAVER ISLAND  SUNNY     60  35  38 NW7       30.06F
BELLAIRE       PTSUNNY   59  32  35 NW6       30.04F
CADILLAC       CLOUDY    57  31  36 E9G16     30.03S
CHARLEVOIX     SUNNY     53  37  53 NW7       30.10S
FRANKFORT      SUNNY     58  38  47 N9        30.06S
GAYLORD        PTSUNNY   58  27  30 E5        30.04S
HARBOR SPRINGS CLOUDY    47  36  65 SW5       30.06S
HOUGHTON LAKE  PTSUNNY   58  30  34 E9        30.04F
MANISTEE       PTSUNNY   54  36  50 NW14      30.07R
OSCODA         CLOUDY    53  37  55 E6        30.06S
PELLSTON       CLOUDY    60  28  29 N6        30.05F
ROGERS CITY    SUNNY     53  33  46 N7        30.07S
TRAVERSE CITY  MOSUNNY   56  38  50 NE8       30.05F
$$
MIZ007>008-015-021800-
EASTERN UPPER MICHIGAN

CITY           SKY/WX    TMP DP  RH WIND       PRES   REMARKS
KINROSS          N/A     61  28  29 N12G17    30.04F
MACKINAC ISLAN PTSUNNY   55  32  42 SW7       30.05S
NEWBERRY       CLOUDY    58  32  38 NW6       30.04F
S. S. MARIE    CLOUDY    61  31  32 NW10      30.04F
MUNISING         N/A     46  37  71 N9        30.10F
$$
MIZ004>006-011>014-085-021800-
CENTRAL UPPER MICHIGAN

CITY           SKY/WX    TMP DP  RH WIND       PRES   REMARKS
MANISTIQUE     CLOUDY    57  36  45 SW5       30.05F
ESCANABA       MOSUNNY   61  32  33 E9        30.06F
MENOMINEE      SUNNY     55  36  47 SE10      30.08S
SAWYER-GWINN   MOSUNNY   54  32  43 NE17      30.11F
$$
MIZ001>003-009>011-084-021800-
WESTERN UPPER MICHIGAN

CITY           SKY/WX    TMP DP  RH WIND       PRES   REMARKS
IRON MOUNTAIN  SUNNY     60  27  28 N3        30.06F
HOUGHTON       SUNNY     56  30  37 NW8       30.09F
COPPER HARBOR    N/A     43  38  82 CALM      30.11S
IRONWOOD         N/A     57  32  38 N9        30.07S
$$

ABBREVIATIONS USED IN REMARKS
   TC - TEMPERATURE IN CELSIUS
  WCI - WIND CHILL INDEX
   HX - HEAT INDEX
  VSB - VISIBILITY




USA.gov is the U.S. government's official web portal to all federal, state and local government web resources and services.